| time (UTC) | temp C | wind direction | speed KPH | gust KPH | rain 1hr cm | rain 24hr cm | rain mn cm | humidity % | barometer mb |
| 20260504015809 | 16 | 301 | 4.8 | 6.4 | 0.00 | 0.99 | 0.99 | 75 | 1015.0 |
| 20260504014303 | 16 | 281 | 6.4 | 9.7 | 0.00 | 0.99 | 0.99 | 73 | 1014.9 |
| 20260504012801 | 16 | 310 | 3.2 | 6.4 | 0.00 | 0.99 | 0.99 | 76 | 1014.7 |
| 20260504011258 | 16 | 317 | 3.2 | 4.8 | 0.00 | 0.99 | 0.99 | 73 | 1014.6 |
| 20260504005758 | 16 | 260 | 4.8 | 6.4 | 0.00 | 0.99 | 0.99 | 77 | 1014.5 |
| 20260504004256 | 15 | 280 | 3.2 | 3.2 | 0.00 | 0.99 | 0.99 | 85 | 1014.4 |
| 20260504002751 | 15 | 283 | 1.6 | 1.6 | 0.00 | 0.99 | 0.99 | 87 | 1014.2 |
| 20260504001248 | 15 | 293 | 4.8 | 6.4 | 0.00 | 0.99 | 0.99 | 86 | 1014.2 |
| 20260503235746 | 15 | 336 | 6.4 | 9.7 | 0.00 | 0.99 | 0.99 | 89 | 1013.9 |
| 20260503234245 | 15 | 3 | 8.0 | 11.3 | 0.13 | 0.99 | 0.99 | 89 | 1013.7 |
| 20260503232740 | 15 | 324 | 4.8 | 6.4 | 0.00 | 0.97 | 0.97 | 89 | 1013.6 |
| 20260503231238 | 14 | 322 | 3.2 | 6.4 | 0.00 | 0.97 | 0.97 | 92 | 1013.3 |
| 20260503225735 | 13 | 335 | 1.6 | 3.2 | 0.00 | 0.97 | 0.97 | 93 | 1013.2 |
| 20260503224236 | 13 | 303 | 3.2 | 3.2 | 0.00 | 0.97 | 0.97 | 93 | 1013.1 |
| 20260503222732 | 13 | 300 | 8.0 | 9.7 | 0.18 | 0.97 | 0.97 | 93 | 1012.6 |
| 20260503221231 | 13 | 284 | 3.2 | 4.8 | 0.00 | 0.94 | 0.94 | 93 | 1012.6 |
| 20260503215727 | 13 | 308 | 3.2 | 4.8 | 0.00 | 0.94 | 0.94 | 93 | 1012.4 |
| 20260503214224 | 13 | 311 | 1.6 | 1.6 | 0.00 | 0.94 | 0.94 | 93 | 1012.2 |
| 20260503212722 | 13 | 318 | 4.8 | 6.4 | 0.00 | 0.94 | 0.94 | 93 | 1012.3 |
| 20260503211219 | 13 | 300 | 3.2 | 4.8 | 0.18 | 0.91 | 0.91 | 92 | 1011.9 |
| 20260503205719 | 13 | 322 | 3.2 | 4.8 | 0.00 | 0.89 | 0.89 | 91 | 1011.6 |
| 20260503204216 | 13 | 336 | 4.8 | 4.8 | 0.00 | 0.89 | 0.89 | 91 | 1011.6 |
| 20260503202713 | 13 | 349 | 8.0 | 11.3 | 0.00 | 0.89 | 0.89 | 92 | 1011.4 |
| 20260503201212 | 13 | 312 | 6.4 | 6.4 | 0.00 | 0.89 | 0.89 | 93 | 1011.3 |
| 20260503195707 | 13 | 299 | 0.0 | 1.6 | 0.00 | 0.89 | 0.89 | 93 | 1011.2 |
| 20260503194202 | 13 | 338 | 6.4 | 6.4 | 0.00 | 0.89 | 0.89 | 93 | 1011.4 |
| 20260503192703 | 13 | 324 | 6.4 | 9.7 | 0.00 | 0.89 | 0.89 | 92 | 1011.3 |
| 20260503191158 | 13 | 343 | 8.0 | 9.7 | 0.00 | 0.81 | 0.81 | 89 | 1011.2 |
| 20260503185655 | 14 | 258 | 9.7 | 11.3 | 0.00 | 0.81 | 0.81 | 87 | 1011.0 |
| 20260503184154 | 13 | 339 | 4.8 | 6.4 | 0.00 | 0.81 | 0.81 | 89 | 1010.9 |
| 20260503182651 | 13 | 291 | 3.2 | 4.8 | 0.00 | 0.81 | 0.81 | 90 | 1011.0 |
| 20260503181149 | 13 | 340 | 4.8 | 4.8 | 0.00 | 0.81 | 0.81 | 92 | 1011.0 |
| 20260503175646 | 13 | 5 | 6.4 | 6.4 | 0.00 | 0.81 | 0.81 | 93 | 1011.1 |
| 20260503174143 | 13 | 301 | 4.8 | 6.4 | 0.00 | 0.81 | 0.81 | 94 | 1011.1 |
| 20260503172644 | 13 | 320 | 8.0 | 11.3 | 0.00 | 0.81 | 0.81 | 94 | 1011.3 |
| 20260503171140 | 13 | 292 | 1.6 | 1.6 | 0.00 | 0.81 | 0.81 | 94 | 1011.4 |
| 20260503131048 | 13 | 305 | 4.8 | 4.8 | 0.00 | 0.58 | 0.58 | 91 | 1012.4 |
| 20260503080954 | 15 | 333 | 1.6 | 3.2 | 0.00 | 0.41 | 0.41 | 77 | 1010.9 |
| 20260503072448 | 15 | 40 | 3.2 | 3.2 | 0.00 | 0.41 | 0.41 | 78 | 1010.8 |
| 20260503070944 | 15 | 56 | 3.2 | 3.2 | 0.00 | 0.41 | 0.41 | 76 | 1010.9 |
| 20260503053928 | 17 | 220 | 6.4 | 11.3 | 0.00 | 0.36 | 0.36 | 64 | 1010.6 |
| 20260503052425 | 18 | 322 | 11.3 | 17.7 | 0.00 | 0.36 | 0.36 | 59 | 1010.3 |
| 20260503050920 | 18 | 285 | 6.4 | 9.7 | 0.00 | 0.36 | 0.36 | 61 | 1010.2 |
| 20260503045417 | 18 | 12 | 9.7 | 16.1 | 0.00 | 0.36 | 0.36 | 59 | 1010.3 |
| 20260503043914 | 17 | 217 | 11.3 | 14.5 | 0.00 | 0.36 | 0.36 | 63 | 1010.2 |
| 20260503042409 | 17 | 38 | 9.7 | 14.5 | 0.00 | 0.36 | 0.36 | 63 | 1010.2 |
| 20260503040905 | 18 | 56 | 11.3 | 16.1 | 0.00 | 0.36 | 0.36 | 63 | 1010.3 |
| 20260503035402 | 17 | 303 | 11.3 | 12.9 | 0.00 | 0.36 | 0.36 | 62 | 1010.4 |
| 20260503033900 | 17 | 358 | 4.8 | 9.7 | 0.00 | 0.36 | 0.36 | 65 | 1010.6 |
| 20260503032400 | 17 | 341 | 4.8 | 11.3 | 0.00 | 0.36 | 0.36 | 65 | 1010.9 |
| 20260503030856 | 16 | 333 | 6.4 | 11.3 | 0.00 | 0.36 | 0.36 | 75 | 1010.7 |
| 20260503025353 | 16 | 18 | 8.0 | 12.9 | 0.00 | 0.36 | 0.36 | 68 | 1010.7 |
| 20260503023849 | 17 | 309 | 4.8 | 9.7 | 0.00 | 0.36 | 0.36 | 68 | 1011.0 |
| 20260503022349 | 16 | 337 | 4.8 | 9.7 | 0.00 | 0.36 | 0.36 | 71 | 1011.1 |